Hourly Data Report for August 15, 2013

All times are specified in Local Standard Time (LST). Add 1 hour to adjust for Daylight Saving Time where and when it is observed.

VICTORIA INTL A
BRITISH COLUMBIA

48°38'50.000" N
123°25'33.000" W
19.50 m
1018621
71799
YYJ

Download Data

Hourly Data (August 2013)
Hourly Data Report for August 15, 2013
Temp Definition
°C
Dew Point Temp Definition
°C
Rel Hum Definition
%
Wind Dir Definition
10's deg

Wind Spd Definition
km/h
Visibility Definition
km
Stn Press Definition
kPa
Hmdx Definition


Wind Chill Definition


Weather Definition


TIME
00:00 Legend Double Dagger 14.5 13.6 94 22 8 24.1 101.15     LegendNANA
01:00 Legend Double Dagger 15.1 14.2 94 36 3 32.2 101.10     Cloudy
02:00 Legend Double Dagger 14.5 13.6 94 11 1 24.1 101.12     LegendNANA
03:00 Legend Double Dagger 14.1 13.5 96 15 3 9.7 101.13     Fog
04:00 Legend Double Dagger 14.0 13.2 95 10 1 9.7 101.12     Fog
05:00 Legend Double Dagger 14.4 13.8 96 24 4 19.3 101.10     LegendNANA
06:00 Legend Double Dagger 13.8 13.0 95 14 7 19.3 101.15     LegendNANA
07:00 Legend Double Dagger 13.6 12.5 93 12 9 19.3 101.17     Mostly Cloudy
08:00 Legend Double Dagger 14.3 12.7 90 11 8 32.2 101.21     LegendNANA
09:00 Legend Double Dagger 14.6 13.0 90 11 5 32.2 101.22     LegendNANA
10:00 Legend Double Dagger 15.7 13.7 88 12 9 48.3 101.22     Mostly Cloudy
11:00 Legend Double Dagger 16.0 13.9 87 12 13 48.3 101.24     LegendNANA
12:00 Legend Double Dagger 16.5 14.0 85 12 16 48.3 101.24     LegendNANA
13:00 Legend Double Dagger 16.0 13.9 87 13 13 48.3 101.27     Cloudy
14:00 Legend Double Dagger 15.4 13.6 89 13 20 48.3 101.30     LegendNANA
15:00 Legend Double Dagger 14.3 13.7 96 9 8 32.2 101.31     Rain
16:00 Legend Double Dagger 14.9 14.1 95 9 11 48.3 101.29     Rain
17:00 Legend Double Dagger 14.1 13.0 93 10 13 48.3 101.29     LegendNANA
18:00 Legend Double Dagger 15.3 14.4 94 8 9 48.3 101.25     LegendNANA
19:00 Legend Double Dagger 13.9 12.8 93 12 16 48.3 101.26     Mostly Cloudy
20:00 Legend Double Dagger 12.6 12.1 97 12 9 48.3 101.30     LegendNANA
21:00 Legend Double Dagger 12.3 12.0 98 6 3 48.3 101.32     LegendNANA
22:00 Legend Double Dagger 12.0 11.5 97 16 7 48.3 101.33     Mainly Clear
23:00 Legend Double Dagger 11.7 11.2 97 5 4 48.3 101.32     LegendNANA

Notes on Data Quality.

Legend

  • E = Estimated
  • M = Missing
  • NA = Not Available
  • ‡ = Partner data that is not subject to review by the National Climate Archives
Date modified: